星链-3560 (STARLINK-3560 )

导读 | 星芒AI

STARLINK-3560 是 SpaceX Starlink 卫星互联网项目中的一颗低轨通信卫星。作为“星链”计划的一部分,该卫星旨在为全球用户提供高速、低延迟的互联网服务,特别是在网络基础设施薄弱的地区。它运行在约 550 公里的轨道高度,与其他 Starlink 卫星协同工作,构建全球覆盖的宽带网络。该计划致力于改善全球互联网接入,推动数字包容性。

基本信息
目录编号:
51859
目录名称:
STARLINK-3560
国际标识:
2022-022H
轨道中心:
EARTH
卫星名称:
星链-3560
卫星全名:
星链-3560 (STARLINK-3560 )
卫星状态:
在轨 (已飞行1388 天)
发射日期:
2022-03-03 UTC
国别 :
美国 (US)
星等 :
--
轨道信息
数据来源 国际轨道数据 AOE轨道数据
星历时间 2025-12-20T13:36:58+0800
6小时前
查看轨道信息
2025-12-15T00:00:00+0800
5天前
查看轨道信息
半长轴 6917.88km 6917.945km
偏心率 0.0001373 0.0001297
轨道倾角 53.219° 53.218°
近地点辐角 86.207° 83.341°
升交点赤经 5.824° 30.816°
平近点角 273.908° 259.519°
近地点 538.793km 538.912km
远地点 540.693km 540.708km
周期 95.438分钟 95.439分钟
每日圈数 15.088402 15.08819
详细信息
固有亮度:
5
最大亮度:
2.5
卫星平台:
Starlink v1.5
覆盖范围:
全球
运营商:
太空探索技术公司
运营商所在国:
美国
制造商(研发单位):
太空探索技术公司
制造商所在国:
美国
使用方式:
暂无
卫星简介
星链(Starlink)计划是由太空探索技术公司(SpaceX)提出的一个巨型低轨卫星互联网星座项目,计划在2019年至2024年间在太空搭建由约1.2万颗卫星组成的“星链”网络,其中1584颗将部署在地球上空550千米处的近地轨道,并从2020年开始工作。该卫星仍在工作。
2D轨道图
3D轨道图
轨道高度分析图
轨道倾角分析图
轨道综合分析图
查看轨道综合分析图